Погода в Куала-Тренгану

Малайзия     5°19′32″N   103°08′28″E
темп.,
°C
ветер,
м/с
пор.,
м/с
влажн.,
%
обл.,
%
осадки,
мм/ч
давл.,
гПа
погр.,
м
23 апреля, пт
пт2323:00+27юз3379100 4.7 1011111
02:00+26з3483100 7.1 1010216
05:00+25зюз3382100 0.5 1009167
08:00+25юз3382100 0.6 1010190
11:00+27ююз2276100 0.0 1011243
14:00+29зюз1264100 0.0 1008527
17:00+29юз126394 0.0 1006638
20:00+29св116893 0.0 1008348
24 апреля, сб
сб2423:00+28ююв0070100 0.0 1010282
02:00+27з1175100 0.0 1009240
05:00+26зюз2180100 0.0 1008165
08:00+26ююз228099 0.0 1010172
11:00+29юв126995 0.0 1011536
14:00+30в2268100 0.8 1009549
17:00+29всв237284 1.7 1007596
20:00+28в2374100 3.7 1009303
25 апреля, вс
вс2523:00+27ссз2378100 9.3 1012159
02:00+26ссз3385100 10.9 1010256
05:00+26зюз0083100 0.3 1009244
08:00+26ююз2282100 0.3 1010272
11:00+29ююз2272100 0.0 1011433
14:00+29всв337249 0.1 1009362
17:00+29в2373100 0.8 1008410
20:00+28в237594 3.8 1009340
26 апреля, пн
пн2623:00+28з1176100 3.3 1011264
02:00+26зюз4587100 5.6 1009203
05:00+26юз3381100 0.0 1009176
08:00+26юз2178100 0.0 1010176
11:00+27зюз227493 0.0 1012255
14:00+29ссз1163100 0.0 1009467
17:00+29ссв2263100 0.0 1008407
20:00+29св226692 0.0 1010391
27 апреля, вт
вт2723:00+28сз116842 0.0 1011445
02:00+27юз117610 0.0 1010193
05:00+26юз228051 0.0 1009153
08:00+26юз227825 0.0 1011174
11:00+29юв1166100 0.0 1011452
14:00+30всв3267100 0.0 1009612
17:00+30в446795 0.1 1008729
20:00+28в2375100 1.6 1010500